Snowfall_Accumulation
nan nan nan nan nan nan nan nan nan nan nan nan nan nan nan nan nan 0.0 0.0 0.0 0.0 3.1 0.5 0.0 0.0 0.0 0.2 0.0 0.8 0.4 2.0 2.4 1.7 1.4 3.4 4.8 4.1 0.9 0.3 0.0 0.0 0.2 1.7 3.4 2.1 5.6 10.6 0.0 0.0 0.1 0.3 0.0 0.0 0.0
nan nan nan nan nan nan nan nan nan nan nan nan nan nan nan nan nan nan 0.0 0.0 0.0 0.0 0.8 0.0 0.0 0.0 0.0 0.0 0.0 0.1 0.1 0.1 0.1 0.8 2.5 0.8 7.2 2.5 0.3 2.5 0.0 2.0 0.1 1.1 0.5 1.5 0.0 0.0 0.0 0.0 0.0 0.0 0.0 0.0
nan nan nan nan nan nan nan nan nan nan nan nan nan nan nan nan nan nan 0.0 0.0 0.0 0.5 1.2 0.4 0.1 0.0 0.0 0.0 0.0 1.0 0.1 0.0 0.0 0.0 0.1 0.5 3.8 0.2 4.9 1.3 0.1 0.0 0.0 0.4 0.1 0.0 0.0 0.0 0.0 0.0 0.0 0.0 0.0 0.0
nan nan nan nan nan nan nan nan nan nan nan nan nan nan nan nan nan nan 0.0 0.0 0.0 0.0 5.7 3.8 0.0 0.0 0.0 0.0 0.0 0.0 0.0 0.0 0.0 0.0 3.2 5.6 6.4 0.0 1.0 0.0 0.0 0.0 0.0 0.0 0.0 0.0 0.0 0.0 0.0 0.0 0.0 0.0 0.0 0.0
nan nan nan nan nan nan nan nan nan nan nan nan nan nan nan nan nan nan 0.0 0.0 0.0 0.1 5.4 2.7 0.0 0.0 0.0 0.0 0.0 0.0 0.0 0.0 0.2 4.1 8.3 7.4 1.8 1.8 1.6 1.2 0.8 0.0 0.0 0.2 0.4 0.0 0.0 0.0 0.0 0.0 0.0 0.0 0.0 0.0
nan nan nan nan nan nan nan nan nan nan nan nan nan nan nan nan nan 0.0 1.6 0.0 0.0 0.0 1.6 5.1 0.6 0.2 0.0 0.0 0.0 0.0 0.0 0.0 0.0 2.1 4.2 2.6 0.0 0.3 4.6 3.1 0.0 0.0 0.0 0.0 0.0 0.0 0.0 0.0 0.0 0.0 0.0 0.0 0.0 0.0
nan nan nan nan nan nan nan nan nan nan nan nan nan nan nan nan 0.0 0.2 1.1 0.0 nan 0.0 1.2 6.6 2.2 0.5 0.0 0.0 0.0 0.0 0.0 0.0 0.2 1.1 3.9 1.1 0.4 0.1 4.3 3.0 0.0 0.0 0.0 0.0 0.0 0.0 0.0 0.0 0.0 0.0 0.0 0.0 0.0 0.0
nan nan nan nan nan nan nan nan nan nan nan nan nan nan nan nan nan 0.1 0.0 nan nan 0.0 0.1 7.9 3.8 0.9 0.0 0.7 1.0 0.0 0.2 0.8 2.3 2.1 3.0 1.9 0.8 2.0 5.5 0.0 0.0 0.0 0.0 0.0 0.0 0.0 0.0 0.0 0.0 0.0 0.0 0.0 0.0 0.0
nan nan nan nan nan nan nan nan nan nan nan nan nan nan 0.0 0.0 3.2 0.4 nan nan 0.0 0.7 6.6 2.4 0.9 2.5 0.0 0.4 0.2 0.6 0.0 5.0 1.0 2.7 0.9 0.5 2.5 4.2 0.1 0.0 0.0 0.0 0.0 0.0 0.0 0.0 0.0 0.0 0.0 0.0 0.0 0.0 0.0 0.0
nan nan nan nan nan nan nan nan nan nan nan nan 0.0 0.5 15.3 2.2 nan nan 0.1 3.0 3.9 5.1 3.7 1.7 0.0 0.4 0.1 0.3 1.3 1.3 2.3 3.4 3.5 1.1 0.1 2.1 0.6 0.0 0.0 0.0 0.0 0.0 0.0 0.0 0.1 0.3 0.0 0.1 0.0 0.1 0.0 0.0 0.0 0.0
nan nan nan nan nan nan nan nan nan nan nan 0.0 3.3 3.7 0.5 nan 0.3 2.1 8.6 8.3 4.2 5.0 1.6 1.3 0.1 0.5 0.0 2.3 2.0 0.4 3.5 1.7 3.7 0.5 1.6 1.8 0.8 0.2 0.1 0.2 0.1 0.0 0.0 0.0 0.0 0.0 0.0 0.0 0.0 0.0 0.1 0.1 0.3 0.3
nan nan nan nan nan nan nan nan nan 0.0 0.0 0.0 0.0 0.0 0.0 0.9 4.8 3.2 3.4 1.5 1.1 0.5 0.7 1.2 1.4 0.3 1.1 0.3 1.8 3.9 3.1 1.8 0.9 0.2 5.1 1.8 1.1 0.2 0.4 0.4 0.2 0.1 0.1 0.1 0.0 0.0 0.0 0.0 0.0 0.0 0.0 0.2 0.2 0.1
nan nan nan nan nan nan nan nan nan nan nan 0.0 0.3 2.3 3.8 4.6 34.3 2.6 3.4 1.0 2.7 0.4 0.8 1.1 5.0 1.3 1.2 0.4 1.5 1.4 3.4 5.2 0.2 7.2 1.2 0.6 0.2 0.1 0.1 0.1 0.1 0.1 0.1 0.1 0.2 0.1 0.2 0.5 0.2 0.3 0.6 0.4 0.6 1.5
nan nan nan nan nan nan nan nan nan 0.0 0.0 1.1 1.5 37.5 9.3 4.3 1.1 0.7 0.6 0.5 0.4 0.3 0.7 1.0 2.8 3.1 2.5 2.5 1.2 3.3 0.4 0.7 5.7 5.8 1.4 1.4 0.5 0.5 0.2 0.1 0.1 0.1 0.2 0.5 0.7 0.5 0.9 1.5 2.9 3.5 5.1 5.3 4.6 4.4
nan nan nan nan nan nan nan nan nan 0.0 0.1 1.7 1.3 25.6 3.9 1.2 0.8 1.1 0.7 0.7 0.6 0.6 2.6 4.7 3.2 1.7 2.9 4.6 1.5 0.9 4.3 3.5 1.4 1.7 2.4 1.9 0.4 0.1 0.1 0.0 0.1 0.3 1.2 1.0 0.3 0.9 2.6 2.4 1.0 1.5 2.2 1.2 0.5 4.0
nan nan 0.0 nan nan nan nan nan 0.0 0.0 0.3 0.4 0.2 1.5 0.8 3.6 6.7 4.8 2.8 2.6 0.2 0.8 0.6 1.7 2.9 4.8 2.9 2.2 1.3 1.1 0.7 1.2 2.2 1.7 1.6 0.4 0.1 0.0 0.0 0.1 0.4 0.2 0.1 0.4 0.2 0.1 0.5 1.7 1.2 0.3 0.4 0.8 4.6 3.3
nan 0.0 nan nan nan nan nan 0.0 0.1 0.0 0.4 0.1 4.4 0.9 1.7 1.7 4.4 2.9 1.2 0.8 0.1 1.0 4.0 1.0 2.2 0.5 1.9 2.4 0.3 1.1 4.1 1.9 2.8 2.2 0.5 0.0 0.0 0.1 0.2 0.4 2.4 0.7 0.3 0.2 0.2 0.2 0.3 0.3 0.4 0.2 0.3 0.3 0.3 0.4
0.0 0.0 nan nan nan nan 0.0 0.0 0.4 0.5 0.1 0.5 5.3 2.6 1.1 1.1 2.3 1.5 0.9 0.3 1.0 1.4 0.8 0.5 0.4 0.3 4.1 0.7 2.6 2.3 1.8 1.3 0.7 0.7 0.7 0.3 0.1 0.2 0.2 0.3 1.0 0.5 0.3 0.9 1.3 1.4 0.9 1.4 0.3 1.4 0.3 0.3 0.5 0.7
0.0 0.0 nan nan 0.0 0.1 0.7 0.5 0.2 0.9 1.4 0.7 0.6 0.5 0.6 1.3 0.5 0.4 0.6 0.4 0.6 0.4 1.7 1.5 0.3 1.1 2.3 1.2 1.8 1.3 1.2 0.8 1.3 1.2 1.2 0.3 0.2 1.1 2.2 1.5 1.1 1.0 1.4 0.9 0.3 1.3 1.2 0.5 0.8 1.1 1.1 1.1 1.4 1.5
nan nan nan nan nan 0.2 0.2 0.6 0.0 0.2 0.5 0.7 0.3 0.4 0.5 0.7 0.4 1.5 0.9 1.0 1.4 1.9 2.5 1.9 1.8 3.5 2.3 1.8 1.2 1.2 1.2 0.7 0.7 1.2 1.8 2.0 1.7 0.6 0.8 0.7 1.5 0.5 1.1 0.5 1.3 0.3 1.1 1.0 0.9 1.1 1.2 1.2 2.0 2.6
nan nan nan 0.0 0.0 0.0 0.3 0.5 0.2 0.1 0.1 0.4 0.3 0.3 1.2 0.2 0.5 1.0 0.7 0.4 5.0 3.4 2.5 3.0 4.4 3.0 1.6 2.5 1.3 1.0 0.9 0.5 1.2 1.2 1.6 3.1 2.3 1.1 1.4 1.6 1.2 1.2 1.2 1.9 3.6 3.2 1.5 2.7 1.6 1.3 6.3 8.5 4.9 3.5
0.0 nan 0.0 0.0 0.4 0.2 0.3 0.0 0.0 0.1 0.5 0.2 0.4 0.3 0.8 4.6 3.9 1.5 0.3 2.7 2.6 2.3 1.9 2.3 2.5 2.2 1.9 1.6 2.8 0.3 0.7 0.1 0.1 0.6 0.3 0.5 2.4 2.0 2.7 2.3 1.9 3.4 2.7 3.5 2.1 3.8 2.7 1.7 2.0 2.2 5.2 9.3 4.3 5.4
nan 0.0 0.3 0.1 0.8 4.0 10.3 0.0 0.1 0.1 0.4 0.3 0.3 0.3 0.9 1.2 1.1 0.2 2.8 0.5 1.9 1.7 1.4 1.0 0.4 0.3 1.3 1.3 0.4 0.4 0.7 0.2 1.2 1.2 1.4 1.6 1.5 1.9 2.0 2.1 2.1 4.6 4.2 2.8 1.9 3.5 4.4 3.0 3.4 8.6 5.9 6.4 8.2 17.0
nan 0.5 4.4 2.1 3.7 12.7 0.6 3.5 0.2 0.2 0.3 0.5 0.6 1.1 0.1 0.5 0.2 1.4 2.1 2.2 2.6 0.9 1.0 1.0 0.7 1.1 0.9 0.4 1.6 1.9 2.0 1.0 1.1 1.2 1.5 1.4 1.6 2.1 1.4 1.8 2.4 2.7 2.9 2.6 2.8 4.4 4.3 10.7 6.7 5.3 11.8 20.5 26.5 24.1
12.9 19.5 4.4 35.5 1.5 6.7 4.8 2.8 0.7 0.6 3.0 2.3 1.5 1.4 4.8 0.2 3.3 2.4 0.8 3.1 2.5 3.7 3.0 1.8 0.7 0.7 1.3 2.1 2.1 2.3 0.7 0.9 1.3 1.7 1.6 1.3 1.8 2.4 2.0 1.5 1.9 2.4 2.4 7.7 11.0 13.7 15.1 15.0 14.8 14.1 9.9 26.0 11.4 13.8
35.5 10.4 14.5 2.3 7.1 3.1 1.1 5.6 6.4 6.4 2.9 4.1 2.5 1.0 1.0 3.0 4.1 4.9 1.6 3.9 6.2 3.9 15.0 11.3 4.8 1.4 1.1 0.7 1.4 1.4 1.5 0.9 0.8 1.5 1.6 1.1 1.4 4.7 6.5 6.1 6.1 5.7 3.0 7.4 11.8 19.2 14.7 16.6 19.1 10.7 18.2 11.5 10.1 23.6
31.8 13.7 0.3 0.0 0.3 0.2 5.6 3.7 0.4 2.4 5.0 8.4 2.7 5.0 5.2 14.7 9.4 3.1 1.8 1.8 1.7 2.6 1.5 1.3 1.1 1.0 1.1 1.1 0.8 1.1 1.1 1.1 1.5 1.9 1.8 1.4 1.6 1.7 4.2 11.8 7.7 6.5 3.6 6.6 10.6 20.1 21.4 21.9 24.0 17.5 20.9 20.2 23.1 25.6
2.2 0.9 11.1 2.6 6.3 0.6 6.3 4.3 4.1 5.2 2.2 0.7 3.5 8.9 10.2 8.9 5.9 3.4 2.2 2.1 2.6 1.2 1.2 1.2 1.0 1.0 1.3 1.6 2.3 3.3 3.7 3.4 5.3 3.6 2.7 2.3 2.2 5.0 5.8 5.6 5.3 7.3 6.7 13.9 14.9 18.5 15.0 22.0 26.2 26.1 24.1 25.0 28.3 25.2
3.3 0.9 1.1 13.1 5.6 2.8 5.1 6.3 5.0 1.6 0.6 1.8 11.3 6.3 4.0 1.9 5.6 3.7 3.6 3.2 2.4 2.4 4.2 5.9 8.0 8.1 4.9 4.5 6.5 4.8 6.2 8.3 6.7 11.0 12.3 17.2 13.9 12.3 7.5 7.7 8.6 11.1 10.2 11.5 7.9 9.6 12.0 17.3 20.3 23.1 19.3 28.0 26.5 28.8
3.9 0.6 4.0 6.8 10.4 5.6 8.0 5.8 7.1 6.2 0.5 1.9 1.2 1.3 1.6 4.3 6.4 3.3 5.1 5.0 7.7 17.1 23.2 19.2 21.3 19.8 28.3 20.7 19.4 13.7 14.1 16.5 15.9 21.5 24.0 19.1 17.3 15.0 15.5 17.9 17.0 16.2 15.5 26.9 18.7 10.1 9.0 19.1 16.6 28.4 26.0 25.4 26.7 30.1
1.0 4.1 7.2 3.5 8.0 9.9 11.3 13.6 13.5 7.4 7.2 13.1 14.1 15.7 11.1 7.9 9.1 5.2 5.1 8.2 8.5 27.2 31.5 35.0 34.0 33.4 29.9 21.3 29.9 27.7 22.6 27.3 14.5 11.7 11.7 16.8 18.3 21.9 22.5 20.4 20.2 21.6 22.1 21.2 25.5 21.8 22.6 26.5 26.8 26.0 21.4 19.4 21.9 22.5
8.2 14.2 19.5 13.2 12.7 21.4 8.9 22.9 17.0 16.2 20.2 22.5 24.6 20.0 24.2 22.3 14.5 11.6 12.9 21.0 26.1 29.5 9.4 25.9 35.3 20.6 18.9 17.8 25.2 20.8 10.1 14.2 14.6 14.6 14.6 18.5 21.0 23.1 15.5 13.2 26.3 25.4 20.9 22.7 20.5 21.9 17.6 23.4 24.9 27.2 25.1 22.9 21.6 20.2
22.5 16.4 11.8 14.4 24.8 12.2 16.1 19.6 5.6 18.6 18.1 21.3 21.3 20.7 22.2 21.4 15.2 19.5 8.5 19.2 22.9 27.5 24.2 29.1 29.5 34.4 21.2 18.7 17.2 18.1 13.5 17.4 17.4 10.5 9.3 9.3 9.2 10.4 17.5 24.0 27.6 23.0 15.2 21.0 23.6 21.9 19.2 15.0 18.0 18.9 20.3 22.8 21.3 19.9
Water_Equivalent
nan nan nan nan nan nan nan nan nan nan nan nan nan nan nan nan nan 0.00 0.00 0.00 0.01 0.64 0.16 0.00 0.00 0.00 0.04 0.00 0.21 0.13 0.51 0.67 0.51 0.37 0.85 1.13 0.86 0.21 0.06 0.00 0.01 0.04 0.35 0.70 0.47 1.00 1.51 0.00 0.00 0.01 0.09 0.00 0.00 0.00
nan nan nan nan nan nan nan nan nan nan nan nan nan nan nan nan nan nan 0.00 0.00 0.00 0.00 0.24 0.00 0.00 0.00 0.00 0.00 0.00 0.02 0.03 0.02 0.04 0.23 0.56 0.20 1.36 0.55 0.07 0.44 0.00 0.42 0.03 0.24 0.12 0.35 0.00 0.00 0.00 0.00 0.00 0.00 0.00 0.00
nan nan nan nan nan nan nan nan nan nan nan nan nan nan nan nan nan nan 0.00 0.00 0.00 0.15 0.38 0.11 0.05 0.00 0.00 0.00 0.00 0.28 0.02 0.00 0.00 0.00 0.04 0.14 0.78 0.06 0.84 0.24 0.02 0.00 0.00 0.12 0.03 0.00 0.00 0.00 0.00 0.00 0.00 0.00 0.00 0.00
nan nan nan nan nan nan nan nan nan nan nan nan nan nan nan nan nan nan 0.00 0.00 0.00 0.00 1.26 0.87 0.00 0.01 0.00 0.00 0.00 0.00 0.00 0.00 0.00 0.00 0.90 1.34 1.24 0.01 0.19 0.00 0.00 0.01 0.00 0.00 0.00 0.00 0.00 0.00 0.00 0.00 0.00 0.00 0.00 0.00
nan nan nan nan nan nan nan nan nan nan nan nan nan nan nan nan nan nan 0.00 0.00 0.00 0.02 1.06 0.53 0.01 0.00 0.00 0.00 0.00 0.00 0.00 0.00 0.06 0.90 1.59 1.25 0.34 0.33 0.30 0.23 0.16 0.00 0.00 0.08 0.16 0.00 0.00 0.00 0.00 0.00 0.00 0.00 0.00 0.00
nan nan nan nan nan nan nan nan nan nan nan nan nan nan nan nan nan 0.00 0.65 0.00 0.00 0.00 0.38 0.80 0.15 0.06 0.00 0.00 0.00 0.00 0.00 0.00 0.01 0.49 0.89 0.53 0.00 0.05 0.79 0.47 0.00 0.00 0.00 0.00 0.01 0.00 0.00 0.00 0.00 0.00 0.00 0.00 0.00 0.00
nan nan nan nan nan nan nan nan nan nan nan nan nan nan nan nan 0.00 0.08 0.27 0.00 nan 0.00 0.34 0.99 0.35 0.13 0.00 0.00 0.00 0.00 0.00 0.00 0.04 0.24 0.71 0.21 0.08 0.03 0.76 0.45 0.00 0.00 0.00 0.00 0.00 0.00 0.00 0.00 0.01 0.00 0.00 0.00 0.00 0.00
nan nan nan nan nan nan nan nan nan nan nan nan nan nan nan nan nan 0.04 0.00 nan nan 0.00 0.04 1.23 0.57 0.17 0.00 0.19 0.24 0.00 0.06 0.18 0.52 0.46 0.54 0.33 0.15 0.38 0.85 0.00 0.00 0.00 0.00 0.00 0.00 0.00 0.00 0.00 0.00 0.00 0.00 0.00 0.00 0.00
nan nan nan nan nan nan nan nan nan nan nan nan nan nan 0.00 0.01 0.93 0.14 nan nan 0.00 0.23 1.35 0.50 0.22 0.66 0.00 0.09 0.03 0.15 0.01 1.04 0.20 0.48 0.14 0.08 0.40 0.70 0.03 0.00 0.00 0.00 0.00 0.00 0.00 0.00 0.00 0.00 0.00 0.00 0.00 0.00 0.00 0.00
nan nan nan nan nan nan nan nan nan nan nan nan 0.00 0.17 3.96 0.60 nan nan 0.03 0.86 0.98 1.29 0.81 0.31 0.01 0.14 0.04 0.10 0.27 0.30 0.50 0.62 0.63 0.23 0.01 0.39 0.15 0.00 0.00 0.00 0.00 0.00 0.00 0.00 0.02 0.05 0.00 0.02 0.01 0.02 0.00 0.00 0.00 0.00
nan nan nan nan nan nan nan nan nan nan nan 0.01 0.73 0.87 0.13 nan 0.12 0.55 1.82 1.57 0.74 0.80 0.30 0.21 0.02 0.11 0.00 0.53 0.55 0.11 0.82 0.32 0.70 0.11 0.33 0.35 0.17 0.07 0.02 0.04 0.03 0.01 0.00 0.00 0.00 0.00 0.00 0.00 0.00 0.00 0.01 0.02 0.05 0.05
nan nan nan nan nan nan nan nan nan 0.00 0.00 0.00 0.00 0.00 0.00 0.27 1.03 0.56 0.74 0.30 0.18 0.08 0.13 0.21 0.24 0.07 0.21 0.07 0.35 0.81 0.60 0.40 0.13 0.06 1.19 0.38 0.24 0.06 0.10 0.10 0.05 0.03 0.03 0.02 0.00 0.00 0.00 0.00 0.00 0.00 0.00 0.03 0.03 0.01
nan nan nan nan nan nan nan nan nan nan nan 0.00 0.10 0.68 1.07 1.37 5.39 0.67 0.83 0.27 0.98 0.12 0.21 0.23 1.22 0.24 0.21 0.07 0.34 0.36 0.89 1.21 0.07 1.88 0.27 0.15 0.05 0.01 0.02 0.01 0.03 0.03 0.03 0.03 0.05 0.03 0.04 0.08 0.04 0.05 0.10 0.08 0.16 0.33
nan nan nan nan nan nan nan nan nan 0.00 0.01 0.35 0.38 5.53 2.54 1.32 0.34 0.24 0.17 0.18 0.16 0.13 0.17 0.22 0.58 0.58 0.47 0.53 0.34 0.90 0.14 0.16 1.37 1.40 0.33 0.28 0.10 0.10 0.04 0.03 0.02 0.03 0.05 0.09 0.14 0.11 0.21 0.33 0.63 0.87 1.24 1.29 1.06 0.87
nan nan nan nan nan nan nan nan nan 0.00 0.05 0.44 0.33 3.23 1.16 0.38 0.29 0.38 0.26 0.25 0.19 0.18 0.53 0.90 0.64 0.36 0.68 1.14 0.34 0.20 1.03 0.98 0.37 0.40 0.46 0.40 0.08 0.03 0.02 0.00 0.02 0.06 0.27 0.22 0.06 0.21 0.59 0.52 0.21 0.31 0.47 0.26 0.11 0.83
nan nan 0.00 nan nan nan nan nan 0.00 0.00 0.11 0.12 0.06 0.42 0.27 1.15 2.25 1.83 1.07 0.89 0.07 0.27 0.20 0.41 0.58 0.92 0.73 0.55 0.27 0.37 0.12 0.30 0.48 0.36 0.35 0.12 0.01 0.01 0.01 0.02 0.07 0.05 0.03 0.08 0.04 0.03 0.11 0.36 0.26 0.06 0.09 0.16 1.01 0.75
nan 0.00 nan nan nan nan nan 0.00 0.02 0.01 0.14 0.01 1.42 0.32 0.56 0.58 1.43 1.05 0.45 0.26 0.04 0.33 1.37 0.25 0.45 0.09 0.39 0.49 0.06 0.23 1.02 0.42 0.57 0.44 0.15 0.00 0.01 0.02 0.05 0.09 0.54 0.16 0.06 0.05 0.04 0.04 0.07 0.06 0.07 0.03 0.05 0.07 0.05 0.08
0.00 0.00 nan nan nan nan 0.02 0.01 0.13 0.13 0.02 0.18 1.50 0.81 0.39 0.40 0.80 0.52 0.30 0.12 0.27 0.32 0.20 0.10 0.09 0.08 1.11 0.15 0.62 0.48 0.39 0.32 0.19 0.21 0.19 0.08 0.02 0.05 0.05 0.07 0.24 0.12 0.06 0.20 0.26 0.29 0.18 0.29 0.06 0.28 0.05 0.05 0.10 0.13
0.00 0.00 nan nan 0.00 0.02 0.19 0.13 0.06 0.23 0.41 0.21 0.20 0.17 0.22 0.44 0.20 0.17 0.23 0.15 0.18 0.15 0.42 0.37 0.08 0.29 0.56 0.29 0.45 0.35 0.36 0.23 0.32 0.33 0.31 0.08 0.07 0.26 0.50 0.36 0.24 0.22 0.27 0.19 0.07 0.30 0.26 0.10 0.17 0.23 0.24 0.24 0.29 0.31
nan nan nan nan nan 0.04 0.04 0.16 0.01 0.04 0.17 0.21 0.11 0.14 0.15 0.22 0.15 0.59 0.31 0.26 0.32 0.49 0.55 0.43 0.44 0.79 0.55 0.44 0.33 0.33 0.33 0.22 0.19 0.31 0.43 0.50 0.48 0.14 0.19 0.17 0.36 0.13 0.26 0.10 0.28 0.08 0.24 0.22 0.20 0.24 0.25 0.25 0.43 0.52
nan nan nan 0.00 0.00 0.00 0.08 0.14 0.05 0.04 0.05 0.12 0.08 0.06 0.32 0.09 0.18 0.35 0.23 0.11 1.27 0.75 0.56 0.65 0.96 0.67 0.39 0.63 0.33 0.26 0.23 0.13 0.31 0.26 0.35 0.61 0.55 0.28 0.33 0.39 0.29 0.28 0.27 0.39 0.74 0.58 0.34 0.47 0.30 0.26 1.74 2.21 1.23 0.82
0.00 nan 0.00 0.01 0.12 0.05 0.11 0.00 0.01 0.02 0.12 0.07 0.09 0.06 0.31 1.60 1.36 0.53 0.08 0.69 0.54 0.48 0.42 0.50 0.54 0.50 0.43 0.34 0.61 0.07 0.18 0.03 0.03 0.16 0.06 0.12 0.48 0.42 0.54 0.50 0.39 0.66 0.53 0.71 0.42 0.82 0.51 0.30 0.39 0.49 1.27 2.27 0.84 1.01
nan 0.00 0.09 0.03 0.25 0.89 2.10 0.01 0.02 0.02 0.15 0.12 0.09 0.11 0.33 0.36 0.30 0.06 0.75 0.11 0.39 0.40 0.34 0.25 0.10 0.07 0.29 0.26 0.08 0.07 0.14 0.05 0.28 0.29 0.32 0.35 0.32 0.43 0.43 0.43 0.46 0.94 0.74 0.46 0.34 0.59 0.75 0.81 0.74 2.08 1.36 1.41 1.58 3.39
nan 0.13 1.24 0.66 0.51 2.83 0.18 1.11 0.06 0.08 0.09 0.18 0.20 0.33 0.04 0.17 0.09 0.43 0.50 0.50 0.50 0.21 0.23 0.20 0.19 0.25 0.18 0.07 0.31 0.36 0.42 0.24 0.23 0.26 0.34 0.29 0.30 0.35 0.27 0.31 0.46 0.49 0.47 0.39 0.47 0.80 0.78 2.32 2.00 1.03 2.55 4.64 5.69 4.66
1.69 3.08 1.55 3.97 0.52 2.01 1.48 0.93 0.22 0.18 0.80 0.73 0.39 0.43 1.36 0.10 0.84 0.66 0.18 0.56 0.47 0.64 0.51 0.37 0.16 0.16 0.25 0.43 0.40 0.41 0.12 0.18 0.25 0.28 0.30 0.25 0.35 0.45 0.34 0.26 0.32 0.36 0.42 1.65 2.26 3.03 3.13 3.07 3.18 2.97 1.84 5.28 1.79 2.26
4.39 3.38 3.09 0.81 2.08 0.97 0.36 1.32 1.44 1.63 0.76 1.02 0.74 0.32 0.35 0.88 0.92 0.98 0.31 0.73 1.12 0.64 3.01 2.18 0.98 0.28 0.21 0.15 0.24 0.23 0.24 0.17 0.16 0.27 0.28 0.20 0.24 0.85 1.13 0.99 0.92 0.83 0.51 1.40 2.39 3.97 2.89 3.21 3.65 1.87 3.35 2.00 2.64 4.41
3.87 3.41 0.12 0.02 0.10 0.07 1.47 1.20 0.14 0.72 1.12 1.54 0.69 1.24 1.36 2.24 1.82 0.52 0.33 0.32 0.29 0.46 0.28 0.26 0.23 0.19 0.19 0.19 0.15 0.22 0.22 0.23 0.26 0.30 0.31 0.24 0.26 0.28 0.77 1.96 1.14 0.86 0.60 1.30 2.22 4.51 4.42 4.19 4.48 2.97 3.60 3.90 4.22 4.55
0.52 0.28 1.61 0.88 1.75 0.21 1.46 0.99 1.01 1.18 0.55 0.20 0.77 1.56 1.94 1.67 0.88 0.53 0.34 0.37 0.51 0.24 0.24 0.26 0.22 0.20 0.23 0.28 0.38 0.56 0.72 0.68 0.95 0.72 0.52 0.43 0.39 0.87 0.96 1.01 0.94 2.39 1.29 2.85 3.49 3.89 3.00 4.58 5.05 4.96 4.33 4.29 4.69 4.32
0.84 0.31 0.36 1.61 0.95 0.72 1.10 1.37 1.08 0.38 0.15 0.50 2.53 1.19 0.79 0.33 0.94 0.60 0.55 0.53 0.49 0.49 0.72 0.97 1.34 1.69 0.91 0.83 1.15 0.84 1.13 1.42 1.25 1.57 2.14 2.38 2.17 1.81 1.13 1.33 1.49 2.01 1.85 2.12 2.61 2.61 2.50 3.23 3.83 4.31 4.38 4.91 4.67 5.06
0.81 0.24 1.07 1.25 1.22 0.88 1.93 1.32 1.71 1.38 0.12 0.44 0.27 0.24 0.28 0.72 0.99 0.60 0.86 0.84 1.27 3.17 4.74 3.73 3.54 3.38 4.82 3.35 2.90 2.09 2.26 2.98 2.49 3.44 3.80 2.80 2.38 2.17 2.48 3.11 3.04 2.95 2.86 5.44 3.12 1.45 2.53 3.29 3.79 4.79 4.12 3.77 4.11 4.40
0.32 1.31 1.89 0.92 1.60 2.66 2.69 3.28 3.30 1.63 1.75 2.95 3.02 3.32 2.04 1.26 1.49 0.90 0.83 1.33 1.42 5.58 6.10 6.41 6.18 6.40 5.03 3.12 5.12 4.56 3.14 4.76 2.00 1.51 1.52 2.31 2.68 3.56 3.78 3.30 3.46 3.88 4.04 3.75 4.65 3.33 3.09 3.83 4.14 4.15 2.98 2.69 2.71 2.78
2.07 3.53 2.96 1.70 2.45 4.67 2.24 5.57 4.22 3.78 4.74 4.47 5.00 4.18 4.81 3.90 2.16 1.64 1.84 3.14 4.09 4.86 2.81 3.95 6.00 2.74 2.61 2.42 4.08 3.17 3.17 1.87 1.91 1.88 2.01 2.63 3.25 3.74 2.34 1.94 4.56 4.61 3.70 3.99 3.33 3.40 2.75 3.56 3.40 3.79 3.24 2.86 2.58 2.31
5.44 3.84 2.53 2.39 4.81 2.69 3.25 4.20 1.17 3.74 3.26 3.79 4.26 3.87 4.01 3.22 1.94 2.49 1.06 2.84 3.74 4.12 3.34 4.54 4.83 5.77 3.02 2.59 2.27 2.49 3.01 2.16 2.72 3.48 3.07 3.07 3.05 2.92 2.62 3.97 4.80 3.70 2.27 3.15 3.53 3.12 2.72 2.01 2.12 2.41 2.46 2.80 2.53 2.30
SL_Ratio
nan nan nan nan nan nan nan nan nan nan nan nan nan nan nan nan nan nan nan nan 4.7 4.8 3.1 nan nan nan 3.7 0.0 3.9 3.3 4.0 3.6 3.4 3.9 4.0 4.3 4.8 4.5 4.7 4.3 4.3 4.4 4.7 4.8 4.5 5.6 7.0 nan nan 4.3 3.0 nan nan nan
nan nan nan nan nan nan nan nan nan nan nan nan nan nan nan nan nan nan nan nan nan nan 3.4 nan nan nan nan nan 5.0 3.3 3.7 3.8 3.2 3.6 4.4 4.1 5.3 4.5 4.4 5.7 nan 4.7 4.6 4.5 4.2 4.3 nan nan nan nan nan nan nan nan
nan nan nan nan nan nan nan nan nan nan nan nan nan nan nan nan nan nan nan nan nan 3.3 3.0 3.7 3.1 nan nan nan nan 3.7 2.8 nan 0.0 nan 3.3 3.5 5.0 4.0 5.8 5.3 3.4 nan nan 3.1 4.0 nan nan nan nan nan nan nan nan nan
nan nan nan nan nan nan nan nan nan nan nan nan nan nan nan nan nan nan nan nan nan nan 4.5 4.4 nan 3.2 nan nan nan nan nan nan nan nan 3.5 4.2 5.1 3.9 5.1 4.0 nan 3.3 nan 0.0 nan nan nan nan nan nan nan nan nan nan
nan nan nan nan nan nan nan nan nan nan nan nan nan nan nan nan nan nan nan nan nan 2.9 5.1 5.1 3.6 2.5 nan nan nan nan nan nan 4.1 4.5 5.2 5.9 5.3 5.4 5.3 5.3 4.8 nan nan 2.6 2.8 nan nan nan nan nan nan nan nan nan
nan nan nan nan nan nan nan nan nan nan nan nan nan nan nan nan nan nan 2.5 nan nan nan 4.2 6.3 4.1 3.8 nan nan nan nan nan nan 3.8 4.3 4.7 4.9 0.0 4.7 5.8 6.6 nan nan nan nan 2.5 nan nan nan nan nan nan nan nan nan
nan nan nan nan nan nan nan nan nan nan nan nan nan nan nan nan nan 2.5 4.0 nan nan nan 3.5 6.7 6.1 3.8 2.0 nan nan nan nan 2.0 4.1 4.7 5.4 5.2 5.2 4.9 5.7 6.7 nan nan nan nan nan nan nan nan 2.6 nan nan nan nan nan
nan nan nan nan nan nan nan nan nan nan nan nan nan nan nan nan nan 2.6 nan nan nan nan 3.6 6.4 6.6 5.1 nan 3.7 4.1 nan 3.9 4.3 4.4 4.7 5.6 5.7 5.1 5.4 6.5 5.7 nan nan nan nan nan nan nan nan nan nan nan nan nan nan
nan nan nan nan nan nan nan nan nan nan nan nan nan nan nan 2.5 3.4 3.2 nan nan nan 3.2 4.8 4.8 3.9 3.9 nan 3.9 4.8 4.0 4.2 4.8 5.0 5.7 6.7 5.8 6.2 6.0 3.3 nan nan nan nan nan nan nan nan nan nan nan nan nan nan nan
nan nan nan nan nan nan nan nan nan nan nan nan nan 3.2 3.9 3.6 nan nan 3.4 3.5 4.0 3.9 4.5 5.4 5.4 3.2 3.8 3.1 4.8 4.5 4.6 5.5 5.5 4.6 5.7 5.3 4.3 nan nan nan nan 5.0 3.6 nan 4.0 5.0 5.0 5.4 4.1 5.7 nan nan nan nan
nan nan nan nan nan nan nan nan nan nan nan 2.6 4.5 4.2 3.6 nan 2.9 3.8 4.7 5.3 5.7 6.3 5.4 6.2 6.7 4.3 5.0 4.3 3.6 4.1 4.3 5.3 5.3 4.2 4.8 5.1 4.6 3.5 3.2 3.5 3.7 3.8 nan nan nan nan nan nan nan 6.7 6.0 6.0 6.2 6.3
nan nan nan nan nan nan nan nan nan nan nan 0.0 nan nan 2.7 3.3 4.7 5.8 4.7 5.2 5.9 5.7 5.2 5.8 5.7 4.6 5.1 4.2 5.1 4.9 5.1 4.4 6.9 3.5 4.3 4.7 4.6 3.5 3.9 4.0 4.1 4.0 4.0 4.1 nan nan nan nan nan nan 6.0 6.5 6.4 6.2
nan nan nan nan nan nan nan nan nan nan nan nan 2.9 3.3 3.5 3.3 6.4 3.9 4.1 3.7 2.8 3.1 3.6 4.8 4.1 5.4 5.7 6.0 4.5 4.0 3.8 4.3 3.0 3.8 4.4 4.1 4.5 4.4 4.1 4.0 4.4 4.1 3.7 3.7 4.4 3.6 5.2 5.9 5.2 5.3 5.9 5.4 4.1 4.5
nan nan nan nan nan nan nan nan nan nan 2.4 3.2 3.8 6.8 3.7 3.3 3.4 3.0 3.3 3.0 2.5 2.5 3.9 4.5 4.9 5.3 5.2 4.7 3.6 3.7 2.9 4.1 4.2 4.1 4.3 5.1 5.2 5.1 4.6 4.4 4.4 4.1 4.4 5.5 5.3 4.1 4.2 4.4 4.5 4.0 4.1 4.1 4.4 5.1
nan nan nan nan nan nan nan nan nan nan 2.5 3.7 3.8 7.9 3.4 3.2 2.8 2.9 2.6 2.9 3.0 3.3 4.8 5.2 5.0 4.8 4.3 4.1 4.4 4.7 4.2 3.6 3.9 4.4 5.2 4.8 4.9 4.7 4.3 10.0 4.9 5.5 4.2 4.5 4.0 4.3 4.3 4.6 4.8 4.8 4.6 4.5 4.7 4.8
nan nan nan nan nan nan nan nan nan nan 3.1 3.4 3.9 3.5 3.1 3.2 3.0 2.6 2.6 2.9 2.5 3.0 3.0 4.1 5.0 5.2 4.0 3.9 5.0 3.1 5.6 4.0 4.5 4.7 4.7 3.6 4.0 3.3 3.4 5.1 5.6 4.5 3.8 5.1 4.2 4.1 4.4 4.7 4.5 4.8 4.9 5.0 4.5 4.5
nan 0.0 nan nan nan nan nan 2.5 2.5 3.5 3.2 4.0 3.1 2.9 2.9 2.9 3.1 2.8 2.6 3.2 2.5 3.1 2.9 3.9 4.9 6.0 4.9 4.8 5.2 4.8 4.0 4.5 5.0 4.9 3.6 3.3 3.7 3.9 3.8 4.1 4.4 4.2 4.1 4.1 4.2 4.4 4.7 4.7 5.0 5.3 5.3 5.1 5.3 5.3
nan nan nan nan nan nan 2.5 2.6 3.4 3.5 4.4 3.0 3.5 3.2 2.9 2.8 2.9 2.8 2.9 2.6 3.6 4.3 3.9 4.7 4.0 4.2 3.7 4.7 4.1 4.7 4.6 4.0 3.6 3.3 3.4 3.4 4.1 4.1 4.6 4.7 4.4 4.3 4.4 4.6 4.9 4.7 4.8 5.0 5.3 4.8 5.3 5.3 5.3 5.4
nan nan nan nan nan 2.8 3.5 3.6 3.6 3.8 3.4 3.1 3.0 2.9 2.9 2.9 2.7 2.6 2.7 2.6 3.2 2.6 4.0 4.0 4.0 4.0 4.0 4.1 4.0 3.8 3.4 3.5 4.0 3.8 3.8 3.8 3.7 4.1 4.4 4.3 4.5 4.7 5.1 4.9 4.9 4.4 4.5 5.1 4.6 4.5 4.6 4.7 4.9 4.9
nan nan nan nan nan 3.7 4.4 3.6 3.2 3.6 3.2 3.2 2.5 3.0 3.0 3.1 2.7 2.5 2.9 4.0 4.4 4.0 4.5 4.5 4.0 4.5 4.2 4.1 3.7 3.8 3.6 3.3 3.6 4.0 4.2 4.1 3.6 4.1 4.2 4.1 4.2 4.3 4.5 5.0 4.7 4.4 4.5 4.6 4.7 4.8 4.8 4.9 4.8 4.9
nan nan nan nan nan nan 3.4 3.9 4.5 3.5 2.7 3.1 3.3 4.7 3.7 2.5 2.7 2.8 3.0 4.0 4.0 4.5 4.5 4.5 4.6 4.5 4.1 4.0 3.9 3.8 3.9 3.8 3.9 4.5 4.6 5.1 4.2 4.0 4.2 4.1 4.1 4.2 4.5 4.9 4.8 5.5 4.5 5.7 5.3 5.1 3.6 3.9 4.0 4.3
nan nan 0.0 2.6 3.7 3.4 2.9 nan 2.4 3.0 4.2 2.6 3.8 4.2 2.7 2.9 2.9 2.9 3.3 4.0 4.8 4.9 4.5 4.6 4.6 4.4 4.5 4.8 4.5 4.3 4.1 4.3 4.3 3.9 4.1 4.1 4.9 4.7 4.9 4.7 4.8 5.1 5.1 4.9 4.9 4.7 5.4 5.7 5.0 4.6 4.1 4.1 5.1 5.3
nan nan 3.5 2.9 3.3 4.5 4.9 2.6 4.9 3.3 2.9 2.7 3.7 2.7 2.8 3.3 3.8 3.8 3.7 4.1 4.8 4.2 4.1 4.1 4.1 4.3 4.5 5.1 5.1 4.8 4.8 4.7 4.4 4.3 4.3 4.6 4.5 4.4 4.6 4.9 4.6 4.9 5.6 6.2 5.5 5.9 5.9 3.7 4.6 4.1 4.3 4.6 5.2 5.0
nan 4.0 3.5 3.2 7.2 4.5 3.5 3.2 3.9 3.0 3.0 2.9 3.0 3.4 2.9 3.0 2.8 3.4 4.2 4.5 5.3 4.2 4.6 5.1 3.7 4.3 4.7 5.6 5.1 5.2 4.7 4.5 4.7 4.6 4.6 5.0 5.3 6.0 5.3 5.7 5.4 5.5 6.3 6.6 6.0 5.5 5.5 4.6 3.4 5.1 4.6 4.4 4.6 5.2
7.7 6.3 2.9 8.9 2.9 3.3 3.2 3.0 3.3 3.3 3.7 3.1 3.7 3.2 3.5 2.6 3.9 3.7 4.5 5.4 5.3 5.8 5.9 4.8 4.1 4.1 5.2 4.9 5.2 5.6 5.8 5.1 5.4 5.8 5.3 5.1 5.3 5.4 5.9 5.9 6.0 6.5 5.6 4.7 4.9 4.5 4.8 4.9 4.6 4.8 5.4 4.9 6.4 6.1
8.1 3.1 4.7 2.8 3.4 3.2 3.1 4.3 4.4 3.9 3.9 4.0 3.4 3.1 2.7 3.4 4.5 5.0 5.1 5.4 5.5 6.1 5.0 5.2 5.0 5.0 5.2 4.8 5.9 6.2 6.0 5.2 4.9 5.6 5.8 5.3 5.5 5.5 5.8 6.1 6.7 6.8 5.9 5.3 4.9 4.8 5.1 5.2 5.2 5.7 5.4 5.8 3.8 5.4
8.2 4.0 2.7 2.5 3.1 3.1 3.8 3.1 2.7 3.3 4.5 5.5 3.9 4.0 3.8 6.6 5.2 6.1 5.5 5.7 6.0 5.7 5.3 5.0 5.0 5.3 5.7 6.0 5.3 5.3 5.1 4.8 5.6 6.2 5.8 5.9 6.1 6.2 5.5 6.0 6.7 7.6 6.0 5.1 4.8 4.5 4.8 5.2 5.4 5.9 5.8 5.2 5.5 5.6
4.2 3.2 6.9 3.0 3.6 3.1 4.3 4.3 4.0 4.5 3.9 3.7 4.5 5.7 5.2 5.3 6.7 6.3 6.5 5.6 5.2 5.0 5.2 4.8 4.5 5.3 5.8 5.9 6.0 5.9 5.1 5.1 5.5 5.1 5.2 5.4 5.7 5.7 6.0 5.6 5.6 3.0 5.2 4.9 4.3 4.8 5.0 4.8 5.2 5.3 5.6 5.8 6.0 5.8
3.9 2.8 3.1 8.1 5.8 3.9 4.7 4.6 4.6 4.1 3.9 3.6 4.4 5.3 5.1 5.8 6.0 6.1 6.6 6.1 4.9 5.0 5.9 6.1 6.0 4.8 5.4 5.4 5.7 5.8 5.5 5.8 5.4 7.0 5.8 7.2 6.4 6.8 6.6 5.7 5.7 5.5 5.5 5.4 3.0 3.7 4.8 5.3 5.3 5.3 4.4 5.7 5.7 5.7
4.8 2.6 3.8 5.5 8.6 6.4 4.2 4.4 4.2 4.5 4.0 4.3 4.2 5.2 5.9 6.0 6.5 5.4 5.9 6.0 6.0 5.4 4.9 5.1 6.0 5.9 5.9 6.2 6.7 6.5 6.3 5.5 6.4 6.3 6.3 6.8 7.3 6.9 6.3 5.8 5.6 5.5 5.4 5.0 6.0 6.9 3.6 5.8 4.4 5.9 6.3 6.7 6.5 6.8
3.0 3.1 3.8 3.8 5.0 3.7 4.2 4.1 4.1 4.5 4.1 4.4 4.7 4.7 5.4 6.3 6.1 5.8 6.2 6.2 6.0 4.9 5.2 5.5 5.5 5.2 6.0 6.8 5.8 6.1 7.2 5.7 7.3 7.8 7.7 7.3 6.8 6.2 5.9 6.2 5.8 5.6 5.5 5.6 5.5 6.5 7.3 6.9 6.5 6.3 7.2 7.2 8.1 8.1
3.9 4.0 6.6 7.8 5.2 4.6 4.0 4.1 4.0 4.3 4.3 5.0 4.9 4.8 5.0 5.7 6.7 7.1 7.0 6.7 6.4 6.1 3.3 6.6 5.9 7.5 7.2 7.4 6.2 6.6 3.2 7.6 7.7 7.8 7.3 7.0 6.5 6.2 6.6 6.8 5.8 5.5 5.7 5.7 6.2 6.4 6.4 6.6 7.3 7.2 7.8 8.0 8.4 8.8
4.1 4.3 4.7 6.1 5.2 4.5 4.9 4.7 4.8 5.0 5.5 5.6 5.0 5.4 5.5 6.6 7.8 7.8 8.0 6.8 6.1 6.7 7.2 6.4 6.1 6.0 7.0 7.2 7.6 7.3 4.5 8.0 6.4 3.0 3.0 3.0 3.0 3.6 6.7 6.1 5.7 6.2 6.7 6.7 6.7 7.0 7.1 7.5 8.5 7.8 8.3 8.1 8.4 8.7